AAL96 KDEN-KSEA

Flight info

Callsign AAL96
Flight time 2h 21m
Altitude 40000
Route DDRTH1 DDRTH IDA PDT CHINS5
Aircraft B77W/H-SDE1E2E3FGHIJ2J3J4J5M1RWXY/LB1D1

Departure

Time 2026-05-07 20:15
Airport Denver International Airport (KDEN)

Arrival

Time 2026-05-07 22:37
Airport Seattle–Tacoma International Airport (KSEA)
Time Latitude Longitude Altitude Speed Heading
2026-05-07 19:46 39.86371 -104.67464 5389 ft 0 kts 200°
2026-05-07 19:57 39.86380 -104.67461 5389 ft 3 kts 200°
2026-05-07 19:57 39.86405 -104.67449 5389 ft 3 kts 200°
2026-05-07 19:57 39.86415 -104.67445 5389 ft 0 kts 200°
2026-05-07 19:58 39.86409 -104.67458 5388 ft 3 kts 262°
2026-05-07 19:58 39.86437 -104.67474 5387 ft 6 kts 358°
2026-05-07 19:58 39.86471 -104.67484 5386 ft 4 kts 307°
2026-05-07 19:58 39.86474 -104.67503 5384 ft 0 kts 272°
2026-05-07 20:07 39.86475 -104.67529 5383 ft 6 kts 272°
2026-05-07 20:07 39.86477 -104.67611 5378 ft 11 kts 270°
2026-05-07 20:07 39.86477 -104.67731 5371 ft 15 kts 270°
2026-05-07 20:07 39.86479 -104.67885 5362 ft 18 kts 270°
2026-05-07 20:08 39.86480 -104.68031 5354 ft 14 kts 270°
2026-05-07 20:08 39.86468 -104.68146 5348 ft 12 kts 241°
2026-05-07 20:08 39.86424 -104.68246 5343 ft 9 kts 255°
2026-05-07 20:08 39.86425 -104.68276 5342 ft 7 kts 271°
2026-05-07 20:09 39.86426 -104.68363 5338 ft 10 kts 270°
2026-05-07 20:09 39.86426 -104.68447 5335 ft 8 kts 270°
2026-05-07 20:09 39.86427 -104.68505 5332 ft 8 kts 271°
2026-05-07 20:10 39.86427 -104.68549 5331 ft 0 kts 271°
2026-05-07 20:11 39.86427 -104.68551 5331 ft 1 kts 270°
2026-05-07 20:11 39.86427 -104.68578 5330 ft 7 kts 269°
2026-05-07 20:12 39.86427 -104.68667 5325 ft 7 kts 270°
2026-05-07 20:12 39.86442 -104.68713 5324 ft 1 kts 347°
2026-05-07 20:12 39.86460 -104.68716 5324 ft 0 kts 358°
2026-05-07 20:12 39.86461 -104.68716 5324 ft 0 kts 359°
2026-05-07 20:14 39.86462 -104.68716 5324 ft 1 kts 358°
2026-05-07 20:14 39.86644 -104.68720 5333 ft 60 kts 359°
2026-05-07 20:14 39.87301 -104.68713 5353 ft 127 kts
2026-05-07 20:14 39.88396 -104.68703 5364 ft 187 kts
2026-05-07 20:15 39.89815 -104.68609 5716 ft 211 kts 360°
2026-05-07 20:15 39.91257 -104.68494 6647 ft 211 kts 356°
2026-05-07 20:15 39.92672 -104.68429 7717 ft 205 kts 357°
2026-05-07 20:15 39.94088 -104.68322 8544 ft 210 kts 358°
2026-05-07 20:16 39.95582 -104.68293 9216 ft 225 kts 355°
2026-05-07 20:16 39.97154 -104.68514 9865 ft 241 kts 340°
2026-05-07 20:16 39.98881 -104.69282 10023 ft 287 kts 338°
2026-05-07 20:16 40.00931 -104.70266 10015 ft 340 kts 338°
2026-05-07 20:17 40.03332 -104.71423 10030 ft 390 kts 338°
2026-05-07 20:17 40.05840 -104.72622 10546 ft 376 kts 338°
2026-05-07 20:17 40.08246 -104.73772 11216 ft 364 kts 338°
2026-05-07 20:17 40.10633 -104.74915 11920 ft 364 kts 338°
2026-05-07 20:18 40.12997 -104.76047 12842 ft 361 kts 337°
2026-05-07 20:18 40.15319 -104.77161 13739 ft 360 kts 338°
2026-05-07 20:18 40.17678 -104.78294 14526 ft 363 kts 337°
2026-05-07 20:18 40.20079 -104.79448 15118 ft 373 kts 338°
2026-05-07 20:19 40.22536 -104.80630 15767 ft 382 kts 337°
2026-05-07 20:19 40.25029 -104.81831 16566 ft 387 kts 338°
2026-05-07 20:19 40.27563 -104.83051 16970 ft 392 kts 337°
2026-05-07 20:19 40.30127 -104.84287 16990 ft 391 kts 337°
2026-05-07 20:20 40.32682 -104.85519 17045 ft 390 kts 337°
2026-05-07 20:20 40.35234 -104.86751 17457 ft 391 kts 337°
2026-05-07 20:20 40.37755 -104.87968 17911 ft 392 kts 337°
2026-05-07 20:20 40.40320 -104.89208 18369 ft 396 kts 337°
2026-05-07 20:21 40.42931 -104.90472 18833 ft 398 kts 337°
2026-05-07 20:21 40.45540 -104.91736 19291 ft 402 kts 337°
2026-05-07 20:21 40.48140 -104.92996 19755 ft 404 kts 337°
2026-05-07 20:21 40.50811 -104.94291 20220 ft 407 kts 337°
2026-05-07 20:22 40.53443 -104.95569 20668 ft 409 kts 337°
2026-05-07 20:22 40.56121 -104.96870 21129 ft 412 kts 337°
2026-05-07 20:22 40.58845 -104.98195 21606 ft 415 kts 337°
2026-05-07 20:22 40.61530 -104.99502 22069 ft 420 kts 337°
2026-05-07 20:23 40.64275 -105.00839 22537 ft 419 kts 336°
2026-05-07 20:23 40.67029 -105.02181 23004 ft 425 kts 336°
2026-05-07 20:23 40.69778 -105.03522 23482 ft 425 kts 336°
2026-05-07 20:23 40.72544 -105.04969 23965 ft 426 kts 332°
2026-05-07 20:24 40.75142 -105.06867 24448 ft 427 kts 324°
2026-05-07 20:24 40.77488 -105.09204 24923 ft 426 kts 317°
2026-05-07 20:24 40.79567 -105.11955 25364 ft 426 kts 310°
2026-05-07 20:24 40.81440 -105.15005 25817 ft 428 kts 308°
2026-05-07 20:25 40.83282 -105.18085 26282 ft 428 kts 308°
2026-05-07 20:25 40.85116 -105.21156 26735 ft 432 kts 309°
2026-05-07 20:25 40.86964 -105.24251 27184 ft 434 kts 308°
2026-05-07 20:25 40.88829 -105.27377 27641 ft 435 kts 309°
2026-05-07 20:26 40.90719 -105.30547 28100 ft 437 kts 309°
2026-05-07 20:26 40.92588 -105.33682 28552 ft 438 kts 309°
2026-05-07 20:26 40.94484 -105.36867 29005 ft 441 kts 309°
2026-05-07 20:26 40.96358 -105.40017 29460 ft 442 kts 309°
2026-05-07 20:27 40.98253 -105.43205 29901 ft 442 kts 309°
2026-05-07 20:27 41.00149 -105.46400 30346 ft 435 kts 309°
2026-05-07 20:27 41.01989 -105.49503 30783 ft 433 kts 309°
2026-05-07 20:27 41.03840 -105.52624 31236 ft 432 kts 309°
2026-05-07 20:28 41.05683 -105.55738 31690 ft 428 kts 309°
2026-05-07 20:28 41.07506 -105.58821 32136 ft 426 kts 309°
2026-05-07 20:28 41.09338 -105.61921 32591 ft 424 kts 309°
2026-05-07 20:28 41.11153 -105.64996 33067 ft 421 kts 309°
2026-05-07 20:29 41.12936 -105.68021 33557 ft 417 kts 308°
2026-05-07 20:29 41.14711 -105.71035 34038 ft 415 kts 309°
2026-05-07 20:29 41.16498 -105.74071 34146 ft 418 kts 309°
2026-05-07 20:30 41.20055 -105.80125 34163 ft 413 kts 309°
2026-05-07 20:30 41.23593 -105.86156 34162 ft 415 kts 309°
2026-05-07 20:31 41.27145 -105.92226 34169 ft 413 kts 309°
2026-05-07 20:31 41.30688 -105.98290 34195 ft 414 kts 309°
2026-05-07 20:32 41.34222 -106.04354 34191 ft 414 kts 309°
2026-05-07 20:32 41.37738 -106.10396 34184 ft 413 kts 309°
2026-05-07 20:33 41.41228 -106.16407 34165 ft 413 kts 309°
2026-05-07 20:33 41.44745 -106.22477 34157 ft 414 kts 308°
2026-05-07 20:34 41.47694 -106.29074 34149 ft 417 kts 300°
2026-05-07 20:34 41.50378 -106.35927 34139 ft 418 kts 300°
2026-05-07 20:35 41.53056 -106.42793 34163 ft 417 kts 300°
2026-05-07 20:35 41.55736 -106.49683 34154 ft 417 kts 300°
2026-05-07 20:36 41.58383 -106.56508 34156 ft 417 kts 300°
2026-05-07 20:36 41.61048 -106.63397 34149 ft 417 kts 300°
2026-05-07 20:37 41.63705 -106.70279 34151 ft 420 kts 300°
2026-05-07 20:37 41.66433 -106.77357 34164 ft 434 kts 300°
2026-05-07 20:38 41.69198 -106.84558 34142 ft 436 kts 300°
2026-05-07 20:38 41.71939 -106.91716 34140 ft 435 kts 300°
2026-05-07 20:39 41.74691 -106.98916 34112 ft 434 kts 299°
2026-05-07 20:39 41.77430 -107.06100 34108 ft 435 kts 300°
2026-05-07 20:40 41.80171 -107.13310 34117 ft 434 kts 300°
2026-05-07 20:40 41.82912 -107.20534 34122 ft 435 kts 300°
2026-05-07 20:41 41.85641 -107.27747 34118 ft 435 kts 300°
2026-05-07 20:41 41.88366 -107.34965 34101 ft 434 kts 299°
2026-05-07 20:42 41.91088 -107.42196 34100 ft 436 kts 299°
2026-05-07 20:42 41.93819 -107.49470 34097 ft 435 kts 300°
2026-05-07 20:43 41.96524 -107.56690 34112 ft 435 kts 300°
2026-05-07 20:43 41.99239 -107.63957 34093 ft 435 kts 300°
2026-05-07 20:44 42.01950 -107.71230 34120 ft 436 kts 299°
2026-05-07 20:44 42.04641 -107.78469 34110 ft 436 kts 299°
2026-05-07 20:45 42.07355 -107.85788 34106 ft 435 kts 298°
2026-05-07 20:45 42.10038 -107.93044 34102 ft 435 kts 298°
2026-05-07 20:46 42.12738 -108.00359 34117 ft 436 kts 298°
2026-05-07 20:46 42.15416 -108.07639 34127 ft 436 kts 299°
2026-05-07 20:47 42.18106 -108.14967 34116 ft 436 kts 299°
2026-05-07 20:47 42.20775 -108.22258 34120 ft 436 kts 298°
2026-05-07 20:48 42.23459 -108.29610 34129 ft 435 kts 298°
2026-05-07 20:48 42.26121 -108.36921 34124 ft 435 kts 299°
2026-05-07 20:49 42.28787 -108.44260 34140 ft 436 kts 298°
2026-05-07 20:49 42.31442 -108.51588 34128 ft 436 kts 298°
2026-05-07 20:50 42.34098 -108.58937 34131 ft 437 kts 298°
2026-05-07 20:50 42.36745 -108.66282 34138 ft 436 kts 298°
2026-05-07 20:51 42.39380 -108.73625 34138 ft 434 kts 298°
2026-05-07 20:51 42.42019 -108.81009 34153 ft 436 kts 297°
2026-05-07 20:52 42.44637 -108.88364 34146 ft 435 kts 297°
2026-05-07 20:52 42.47247 -108.95713 34159 ft 434 kts 297°
2026-05-07 20:53 42.49860 -109.03078 34147 ft 435 kts 296°
2026-05-07 20:53 42.52483 -109.10493 34153 ft 436 kts 298°
2026-05-07 20:54 42.55113 -109.17864 34159 ft 435 kts 298°
2026-05-07 20:54 42.57719 -109.25208 34154 ft 435 kts 298°
2026-05-07 20:55 42.60332 -109.32614 34149 ft 434 kts 298°
2026-05-07 20:55 42.62915 -109.39960 34145 ft 434 kts 297°
2026-05-07 20:56 42.65496 -109.47329 34144 ft 435 kts 298°
2026-05-07 20:56 42.68076 -109.54714 34146 ft 433 kts 298°
2026-05-07 20:57 42.70644 -109.62090 34141 ft 433 kts 298°
2026-05-07 20:57 42.73214 -109.69487 34144 ft 433 kts 297°
2026-05-07 20:58 42.75782 -109.76901 34129 ft 434 kts 297°
2026-05-07 20:58 42.78336 -109.84295 34140 ft 432 kts 297°
2026-05-07 20:59 42.80873 -109.91658 34152 ft 434 kts 297°
2026-05-07 20:59 42.83433 -109.99110 34156 ft 434 kts 297°
2026-05-07 21:00 42.85979 -110.06541 34167 ft 434 kts 297°
2026-05-07 21:00 42.88517 -110.13962 34173 ft 435 kts 297°
2026-05-07 21:01 42.91054 -110.21410 34175 ft 432 kts 297°
2026-05-07 21:01 42.93587 -110.28863 34177 ft 431 kts 297°
2026-05-07 21:02 42.96091 -110.36252 34167 ft 431 kts 297°
2026-05-07 21:02 42.98602 -110.43678 34168 ft 432 kts 297°
2026-05-07 21:03 43.01090 -110.51061 34157 ft 431 kts 297°
2026-05-07 21:03 43.03598 -110.58520 34165 ft 431 kts 297°
2026-05-07 21:04 43.06089 -110.65951 34171 ft 431 kts 297°
2026-05-07 21:04 43.08555 -110.73327 34194 ft 430 kts 297°
2026-05-07 21:05 43.11042 -110.80786 34194 ft 430 kts 296°
2026-05-07 21:05 43.13501 -110.88179 34175 ft 430 kts 296°
2026-05-07 21:06 43.15962 -110.95602 34185 ft 428 kts 297°
2026-05-07 21:06 43.18424 -111.03046 34184 ft 429 kts 296°
2026-05-07 21:07 43.20867 -111.10452 34167 ft 430 kts 296°
2026-05-07 21:07 43.23320 -111.17911 34171 ft 429 kts 296°
2026-05-07 21:08 43.25780 -111.25412 34153 ft 431 kts 296°
2026-05-07 21:08 43.28225 -111.32891 34150 ft 430 kts 296°
2026-05-07 21:09 43.30664 -111.40368 34150 ft 432 kts 296°
2026-05-07 21:09 43.33115 -111.47903 34136 ft 432 kts 296°
2026-05-07 21:10 43.35534 -111.55365 34138 ft 430 kts 296°
2026-05-07 21:10 43.37967 -111.62888 34118 ft 433 kts 296°
2026-05-07 21:11 43.40393 -111.70413 34117 ft 433 kts 296°
2026-05-07 21:11 43.44022 -111.81705 34097 ft 431 kts 296°
2026-05-07 21:12 43.46445 -111.89274 34077 ft 431 kts 296°
2026-05-07 21:12 43.48865 -111.96853 34065 ft 435 kts 296°
2026-05-07 21:13 43.51263 -112.04385 34052 ft 432 kts 296°
2026-05-07 21:13 43.53804 -112.11861 34043 ft 432 kts 299°
2026-05-07 21:14 43.56479 -112.19235 34045 ft 430 kts 298°
2026-05-07 21:14 43.59145 -112.26643 34040 ft 431 kts 298°
2026-05-07 21:15 43.61793 -112.34042 34054 ft 431 kts 298°
2026-05-07 21:15 43.64425 -112.41431 34059 ft 431 kts 299°
2026-05-07 21:16 43.67051 -112.48824 34054 ft 429 kts 298°
2026-05-07 21:16 43.69664 -112.56205 34067 ft 429 kts 298°
2026-05-07 21:17 43.72284 -112.63628 34070 ft 429 kts 298°
2026-05-07 21:17 43.74890 -112.71030 34085 ft 430 kts 298°
2026-05-07 21:18 43.77489 -112.78437 34093 ft 429 kts 298°
2026-05-07 21:18 43.80085 -112.85853 34094 ft 426 kts 298°
2026-05-07 21:19 43.82646 -112.93188 34111 ft 426 kts 298°
2026-05-07 21:19 43.85208 -113.00552 34120 ft 424 kts 298°
2026-05-07 21:20 43.87763 -113.07922 34143 ft 426 kts 298°
2026-05-07 21:20 43.90341 -113.15366 34149 ft 430 kts 298°
2026-05-07 21:21 43.92886 -113.22768 34146 ft 428 kts 297°
2026-05-07 21:21 43.95447 -113.30235 34156 ft 429 kts 297°
2026-05-07 21:22 43.98012 -113.37721 34157 ft 428 kts 297°
2026-05-07 21:22 44.00557 -113.45161 34169 ft 430 kts 297°
2026-05-07 21:23 44.03125 -113.52680 34175 ft 431 kts 298°
2026-05-07 21:23 44.05689 -113.60152 34170 ft 431 kts 298°
2026-05-07 21:24 44.08248 -113.67662 34169 ft 430 kts 298°
2026-05-07 21:24 44.10804 -113.75192 34189 ft 433 kts 297°
2026-05-07 21:25 44.13350 -113.82723 34193 ft 433 kts 298°
2026-05-07 21:25 44.15910 -113.90318 34186 ft 432 kts 298°
2026-05-07 21:26 44.18462 -113.97915 34191 ft 434 kts 298°
2026-05-07 21:26 44.20995 -114.05477 34196 ft 432 kts 297°
2026-05-07 21:27 44.23532 -114.13075 34188 ft 432 kts 297°
2026-05-07 21:27 44.26069 -114.20693 34184 ft 432 kts 297°
2026-05-07 21:28 44.28577 -114.28245 34176 ft 432 kts 298°
2026-05-07 21:28 44.31113 -114.35904 34169 ft 433 kts 298°
2026-05-07 21:29 44.33626 -114.43516 34177 ft 434 kts 298°
2026-05-07 21:29 44.36133 -114.51131 34174 ft 433 kts 298°
2026-05-07 21:30 44.38655 -114.58813 34188 ft 433 kts 297°
2026-05-07 21:30 44.41152 -114.66451 34191 ft 434 kts 297°
2026-05-07 21:31 44.43645 -114.74110 34194 ft 434 kts 297°
2026-05-07 21:31 44.46132 -114.81789 34197 ft 433 kts 296°
2026-05-07 21:32 44.48609 -114.89455 34186 ft 434 kts 296°
2026-05-07 21:32 44.51098 -114.97109 34189 ft 433 kts 297°
2026-05-07 21:33 44.53578 -115.04772 34194 ft 435 kts 297°
2026-05-07 21:33 44.56063 -115.12498 34189 ft 436 kts 297°
2026-05-07 21:34 44.58544 -115.20247 34177 ft 436 kts 297°
2026-05-07 21:34 44.61024 -115.27981 34160 ft 436 kts 297°
2026-05-07 21:35 44.63491 -115.35706 34164 ft 438 kts 297°
2026-05-07 21:35 44.65986 -115.43547 34158 ft 437 kts 297°
2026-05-07 21:36 44.68440 -115.51289 34156 ft 438 kts 297°
2026-05-07 21:36 44.70913 -115.59116 34148 ft 438 kts 297°
2026-05-07 21:37 44.73382 -115.66952 34148 ft 439 kts 296°
2026-05-07 21:37 44.75835 -115.74764 34147 ft 440 kts 296°
2026-05-07 21:38 44.78305 -115.82651 34142 ft 440 kts 296°
2026-05-07 21:38 44.80764 -115.90530 34132 ft 442 kts 296°
2026-05-07 21:39 44.83217 -115.98411 34124 ft 441 kts 296°
2026-05-07 21:39 44.85683 -116.06361 34111 ft 442 kts 296°
2026-05-07 21:40 44.88131 -116.14275 34103 ft 443 kts 296°
2026-05-07 21:40 44.90581 -116.22222 34095 ft 443 kts 296°
2026-05-07 21:41 44.93026 -116.30178 34088 ft 443 kts 296°
2026-05-07 21:41 44.95455 -116.38106 34101 ft 442 kts 296°
2026-05-07 21:42 44.97885 -116.46059 34099 ft 444 kts 296°
2026-05-07 21:42 45.00318 -116.54050 34111 ft 442 kts 296°
2026-05-07 21:43 45.02672 -116.61805 34110 ft 443 kts 296°
2026-05-07 21:43 45.04810 -116.68868 34110 ft 442 kts 295°
2026-05-07 21:44 45.07224 -116.76867 34091 ft 446 kts 296°
2026-05-07 21:44 45.09639 -116.84895 34098 ft 444 kts 295°
2026-05-07 21:45 45.12046 -116.92923 34106 ft 446 kts 295°
2026-05-07 21:45 45.14447 -117.00954 34104 ft 447 kts 295°
2026-05-07 21:46 45.16860 -117.09052 34110 ft 445 kts 295°
2026-05-07 21:46 45.19257 -117.17121 34107 ft 447 kts 295°
2026-05-07 21:47 45.21665 -117.25258 34119 ft 446 kts 295°
2026-05-07 21:47 45.24051 -117.33342 34120 ft 448 kts 295°
2026-05-07 21:48 45.26442 -117.41472 34119 ft 447 kts 295°
2026-05-07 21:48 45.28826 -117.49604 34108 ft 446 kts 295°
2026-05-07 21:49 45.31190 -117.57693 34099 ft 447 kts 295°
2026-05-07 21:49 45.33559 -117.65826 34096 ft 446 kts 294°
2026-05-07 21:50 45.35931 -117.73994 34096 ft 449 kts 295°
2026-05-07 21:50 45.38306 -117.82204 34083 ft 449 kts 295°
2026-05-07 21:51 45.40667 -117.90391 34075 ft 449 kts 295°
2026-05-07 21:51 45.43026 -117.98595 34067 ft 450 kts 294°
2026-05-07 21:52 45.45400 -118.06883 34067 ft 451 kts 294°
2026-05-07 21:52 45.47744 -118.15091 34077 ft 450 kts 294°
2026-05-07 21:53 45.50103 -118.23379 34087 ft 452 kts 294°
2026-05-07 21:53 45.52430 -118.31587 34084 ft 451 kts 294°
2026-05-07 21:54 45.54780 -118.39901 34075 ft 450 kts 294°
2026-05-07 21:54 45.57117 -118.48194 34059 ft 452 kts 294°
2026-05-07 21:55 45.59448 -118.56499 34050 ft 451 kts 294°
2026-05-07 21:55 45.61766 -118.64784 34037 ft 452 kts 294°
2026-05-07 21:56 45.64087 -118.73108 34031 ft 452 kts 293°
2026-05-07 21:56 45.66396 -118.81417 34027 ft 453 kts 294°
2026-05-07 21:57 45.68720 -118.89808 34024 ft 453 kts 294°
2026-05-07 21:57 45.71710 -118.97633 34022 ft 452 kts 307°
2026-05-07 21:58 45.75802 -119.04414 34013 ft 451 kts 311°
2026-05-07 21:58 45.79952 -119.11179 33997 ft 451 kts 311°
2026-05-07 21:59 45.84046 -119.17986 33986 ft 450 kts 310°
2026-05-07 21:59 45.88116 -119.24832 33982 ft 451 kts 310°
2026-05-07 22:00 45.92155 -119.31675 33973 ft 450 kts 310°
2026-05-07 22:00 45.96178 -119.38522 33964 ft 451 kts 310°
2026-05-07 22:01 46.00206 -119.45403 33954 ft 450 kts 310°
2026-05-07 22:01 46.04236 -119.52310 33946 ft 452 kts 310°
2026-05-07 22:02 46.08270 -119.59242 33946 ft 452 kts 310°
2026-05-07 22:02 46.12294 -119.66177 33956 ft 451 kts 309°
2026-05-07 22:03 46.16294 -119.73086 33956 ft 453 kts 309°
2026-05-07 22:03 46.20315 -119.80051 33953 ft 452 kts 309°
2026-05-07 22:04 46.24345 -119.87048 33957 ft 453 kts 309°
2026-05-07 22:04 46.28345 -119.94013 33954 ft 453 kts 309°
2026-05-07 22:05 46.32318 -120.00945 33607 ft 444 kts 309°
2026-05-07 22:05 46.34287 -120.04390 32782 ft 445 kts 309°
2026-05-07 22:05 46.36245 -120.07818 32142 ft 441 kts 309°
2026-05-07 22:06 46.38195 -120.11237 31750 ft 439 kts 309°
2026-05-07 22:06 46.40135 -120.14642 31355 ft 450 kts 309°
2026-05-07 22:06 46.42138 -120.18161 30949 ft 451 kts 309°
2026-05-07 22:06 46.44103 -120.21618 30558 ft 447 kts 309°
2026-05-07 22:07 46.46090 -120.25120 30157 ft 442 kts 309°
2026-05-07 22:07 46.48013 -120.28511 29771 ft 440 kts 309°
2026-05-07 22:07 46.49945 -120.31924 29376 ft 439 kts 309°
2026-05-07 22:07 46.51893 -120.35369 28980 ft 438 kts 309°
2026-05-07 22:08 46.53798 -120.38742 28586 ft 437 kts 309°
2026-05-07 22:08 46.55744 -120.42191 28187 ft 436 kts 309°
2026-05-07 22:08 46.57641 -120.45567 27787 ft 433 kts 308°
2026-05-07 22:08 46.59380 -120.49111 27406 ft 432 kts 304°
2026-05-07 22:09 46.61072 -120.52718 27007 ft 430 kts 304°
2026-05-07 22:09 46.62737 -120.56258 26624 ft 429 kts 304°
2026-05-07 22:09 46.64419 -120.59821 26230 ft 428 kts 304°
2026-05-07 22:09 46.66109 -120.63395 25836 ft 426 kts 304°
2026-05-07 22:10 46.67778 -120.66920 25447 ft 425 kts 304°
2026-05-07 22:10 46.69457 -120.70467 24960 ft 421 kts 304°
2026-05-07 22:10 46.71103 -120.73943 24172 ft 424 kts 304°
2026-05-07 22:10 46.72771 -120.77466 23397 ft 425 kts 304°
2026-05-07 22:11 46.74445 -120.81004 22814 ft 422 kts 304°
2026-05-07 22:11 46.76080 -120.84463 22295 ft 418 kts 304°
2026-05-07 22:11 46.77718 -120.87933 21739 ft 415 kts 304°
2026-05-07 22:11 46.79346 -120.91383 21160 ft 413 kts 304°
2026-05-07 22:12 46.80970 -120.94831 20595 ft 411 kts 304°
2026-05-07 22:12 46.82588 -120.98267 20024 ft 409 kts 304°
2026-05-07 22:12 46.84177 -121.01648 19468 ft 408 kts 304°
2026-05-07 22:12 46.85770 -121.05042 18919 ft 405 kts 304°
2026-05-07 22:13 46.87355 -121.08420 18392 ft 403 kts 304°
2026-05-07 22:13 46.88918 -121.11757 17865 ft 400 kts 304°
2026-05-07 22:13 46.90484 -121.15103 17329 ft 398 kts 304°
2026-05-07 22:13 46.92053 -121.18460 16838 ft 395 kts 304°
2026-05-07 22:14 46.93569 -121.21709 16378 ft 392 kts 304°
2026-05-07 22:14 46.95095 -121.24983 15892 ft 388 kts 304°
2026-05-07 22:14 46.96605 -121.28224 15438 ft 384 kts 304°
2026-05-07 22:14 46.98105 -121.31450 14952 ft 381 kts 304°
2026-05-07 22:15 46.99591 -121.34647 14495 ft 377 kts 304°
2026-05-07 22:15 47.01029 -121.37746 14360 ft 363 kts 304°
2026-05-07 22:15 47.02409 -121.40725 14338 ft 347 kts 304°
2026-05-07 22:15 47.03729 -121.43574 14309 ft 333 kts 304°
2026-05-07 22:16 47.05003 -121.46327 14295 ft 318 kts 304°
2026-05-07 22:16 47.06216 -121.48953 14240 ft 304 kts 304°
2026-05-07 22:16 47.07387 -121.51489 13973 ft 300 kts 304°
2026-05-07 22:16 47.08542 -121.53992 13653 ft 297 kts 304°
2026-05-07 22:17 47.09690 -121.56483 13276 ft 297 kts 304°
2026-05-07 22:17 47.10847 -121.58997 12904 ft 296 kts 304°
2026-05-07 22:17 47.11990 -121.61481 12565 ft 295 kts 304°
2026-05-07 22:17 47.13137 -121.63978 12184 ft 293 kts 304°
2026-05-07 22:18 47.14267 -121.66439 11859 ft 292 kts 303°
2026-05-07 22:18 47.16505 -121.71320 11428 ft 279 kts 304°
2026-05-07 22:18 47.17583 -121.73674 11099 ft 277 kts 304°
2026-05-07 22:19 47.18650 -121.76007 10730 ft 277 kts 303°
2026-05-07 22:19 47.19725 -121.78359 10374 ft 276 kts 303°
2026-05-07 22:19 47.20795 -121.80700 10036 ft 275 kts 303°
2026-05-07 22:19 47.21846 -121.83004 9707 ft 274 kts 303°
2026-05-07 22:20 47.22910 -121.85335 9380 ft 273 kts 303°
2026-05-07 22:20 47.23962 -121.87645 9075 ft 270 kts 303°
2026-05-07 22:20 47.24996 -121.89915 8714 ft 271 kts 303°
2026-05-07 22:20 47.26041 -121.92212 8393 ft 270 kts 304°
2026-05-07 22:21 47.27078 -121.94495 8118 ft 268 kts 304°
2026-05-07 22:21 47.28111 -121.96768 7770 ft 270 kts 304°
2026-05-07 22:21 47.29158 -121.99075 7451 ft 268 kts 304°
2026-05-07 22:21 47.30185 -122.01341 7205 ft 266 kts 303°
2026-05-07 22:22 47.31216 -122.03616 7009 ft 268 kts 303°
2026-05-07 22:22 47.32251 -122.05902 6841 ft 267 kts 303°
2026-05-07 22:22 47.33277 -122.08169 6646 ft 267 kts 303°
2026-05-07 22:22 47.34303 -122.10436 6454 ft 267 kts 304°
2026-05-07 22:23 47.35331 -122.12710 6258 ft 266 kts 304°
2026-05-07 22:23 47.36358 -122.14980 6065 ft 264 kts 304°
2026-05-07 22:23 47.37371 -122.17223 5874 ft 263 kts 304°
2026-05-07 22:23 47.38384 -122.19464 5682 ft 263 kts 304°
2026-05-07 22:24 47.39539 -122.21526 5429 ft 262 kts 323°
2026-05-07 22:24 47.41165 -122.22604 5127 ft 258 kts 353°
2026-05-07 22:24 47.42927 -122.22619 4963 ft 249 kts
2026-05-07 22:24 47.44625 -122.22488 4950 ft 241 kts
2026-05-07 22:25 47.46273 -122.22122 4954 ft 238 kts 11°
2026-05-07 22:25 47.47899 -122.21666 4949 ft 237 kts 11°
2026-05-07 22:25 47.49533 -122.21213 4950 ft 238 kts 11°
2026-05-07 22:25 47.51159 -122.20763 4951 ft 238 kts 11°
2026-05-07 22:26 47.52771 -122.20319 4950 ft 237 kts 11°
2026-05-07 22:26 47.54401 -122.19872 4949 ft 238 kts 11°
2026-05-07 22:26 47.56031 -122.19423 4949 ft 238 kts 11°
2026-05-07 22:26 47.57649 -122.18977 4948 ft 238 kts 11°
2026-05-07 22:27 47.59281 -122.18529 4951 ft 238 kts 11°
2026-05-07 22:27 47.60914 -122.18081 4952 ft 238 kts 11°
2026-05-07 22:27 47.62534 -122.17635 4951 ft 237 kts 11°
2026-05-07 22:27 47.64165 -122.17182 4950 ft 237 kts 11°
2026-05-07 22:28 47.65770 -122.16734 4948 ft 237 kts 11°
2026-05-07 22:28 47.67400 -122.16277 4950 ft 238 kts 11°
2026-05-07 22:28 47.69030 -122.15822 4954 ft 237 kts 11°
2026-05-07 22:28 47.70667 -122.15573 4934 ft 237 kts 352°
2026-05-07 22:29 47.72258 -122.16101 4957 ft 239 kts 345°
2026-05-07 22:29 47.73779 -122.17052 4931 ft 237 kts 321°
2026-05-07 22:29 47.74757 -122.18953 4936 ft 237 kts 290°
2026-05-07 22:29 47.75019 -122.21382 4952 ft 240 kts 272°
2026-05-07 22:30 47.75053 -122.23841 4949 ft 239 kts 271°
2026-05-07 22:30 47.75068 -122.26344 4953 ft 240 kts 271°
2026-05-07 22:30 47.75079 -122.28818 4953 ft 239 kts 271°
2026-05-07 22:30 47.75054 -122.31246 4942 ft 238 kts 264°
2026-05-07 22:31 47.74479 -122.33530 4935 ft 240 kts 232°
2026-05-07 22:31 47.73180 -122.35050 4930 ft 236 kts 200°
2026-05-07 22:31 47.71610 -122.35319 4922 ft 226 kts 167°
2026-05-07 22:31 47.70190 -122.34409 4834 ft 222 kts 148°
2026-05-07 22:32 47.68830 -122.33326 4670 ft 223 kts 154°
2026-05-07 22:32 47.67411 -122.32364 4391 ft 221 kts 155°
2026-05-07 22:32 47.66032 -122.31420 4130 ft 218 kts 155°
2026-05-07 22:32 47.64616 -122.30755 3880 ft 213 kts 171°
2026-05-07 22:33 47.63152 -122.30561 3607 ft 210 kts 179°
2026-05-07 22:33 47.61697 -122.30560 3335 ft 208 kts 181°
2026-05-07 22:33 47.60258 -122.30605 3066 ft 205 kts 181°
2026-05-07 22:33 47.58834 -122.30637 2796 ft 203 kts 180°
2026-05-07 22:34 47.57446 -122.30653 2535 ft 193 kts 180°
2026-05-07 22:34 47.56118 -122.30666 2287 ft 192 kts 179°
2026-05-07 22:34 47.54773 -122.30680 2037 ft 190 kts 180°
2026-05-07 22:34 47.53472 -122.30697 1771 ft 183 kts 180°
2026-05-07 22:35 47.52243 -122.30712 1534 ft 173 kts 180°
2026-05-07 22:35 47.51057 -122.30725 1322 ft 167 kts 181°
2026-05-07 22:35 47.49898 -122.30737 1106 ft 166 kts 181°
2026-05-07 22:35 47.48746 -122.30749 897 ft 166 kts 181°
2026-05-07 22:36 47.47607 -122.30760 690 ft 161 kts 181°
2026-05-07 22:36 47.46490 -122.30772 492 ft 158 kts 182°
2026-05-07 22:36 47.45466 -122.30776 432 ft 122 kts 182°
2026-05-07 22:36 47.44745 -122.30791 403 ft 88 kts 182°
2026-05-07 22:37 47.44424 -122.30804 392 ft 15 kts 180°
2026-05-07 22:37 47.44348 -122.30720 391 ft 11 kts 97°
2026-05-07 22:37 47.44347 -122.30614 392 ft 6 kts 90°
2026-05-07 22:37 47.44362 -122.30563 393 ft 5 kts 10°
2026-05-07 22:38 47.44397 -122.30563 395 ft 0 kts
2026-05-07 22:38 47.44451 -122.30563 396 ft 13 kts 359°
2026-05-07 22:38 47.44552 -122.30566 398 ft 19 kts 359°
2026-05-07 22:38 47.44675 -122.30567 402 ft 15 kts 357°
2026-05-07 22:39 47.44766 -122.30585 405 ft 11 kts 352°
2026-05-07 22:39 47.44857 -122.30572 407 ft 4 kts 52°
2026-05-07 22:39 47.44884 -122.30546 408 ft 5 kts 30°
2026-05-07 22:39 47.44909 -122.30525 409 ft 6 kts 29°
2026-05-07 22:40 47.44929 -122.30502 410 ft 0 kts 71°
2026-05-07 22:40 47.44929 -122.30484 410 ft 0 kts 89°
2026-05-07 22:40 47.44925 -122.30456 410 ft 0 kts 107°
2026-05-07 22:40 47.44925 -122.30455 410 ft 0 kts 106°